User: anonymous   Login
Location: Unspecified
(0.0000°N, 0.0000°E)
Time: 20:44:50
(UTC+02:00)
Language:

Ariane H10 - Orbit

View from above orbital plane
View from above orbital plane
View from above satellite
View from above satellite

Ground track
Ground track

The orbit data is extracted from the following two-line orbital elements,

1 21815U 91084C   17289.48838953  .00000368  00000-0  13386-2 0  9994
2 21815   4.1773  31.9422 7195692 173.5230 207.5580  2.31815852215147
Epoch (UTC): 16 October 2017 11:43:16
Eccentricity: 0.7195692
inclination: 4.1773°
perigee height: 385 km
apogee height: 35091 km
right ascension of ascending node: 31.9422°
argument of perigee: 173.5230°
revolutions per day: 2.31815852
mean anomaly at epoch: 207.5580°
orbit number at epoch: 21514

The dashed part of the orbit path shows where the satellite is in the earth's shadow,  

DLR